Regional Weather Roundup
Issued by NWS

Home | Current Version | Previous Version | Graphics & Text | Print | Product List | Glossary On
Versions: 1 2 3 4 5 6 7 8 9 10 11 12 13 14 15 16 17 18 19 20 21 22 23 24 25 26 27
000
ASUS45 KSLC 230210
RWRUT

UTAH REGIONAL WEATHER ROUNDUP
NATIONAL WEATHER SERVICE SALT LAKE CITY UT
800 PM MDT WED MAR 22 2017

UTZ001>011-023>025-230300-

NORTHERN UTAH

CITY           SKY/WX    TMP DP  RH WIND       PRES   REMARKS
BRIGHAM CITY     N/A     51  45  79 N8        29.79S
HILL AFB       CLOUDY    50  41  69 VRB5      29.78S
LOGAN          CLOUDY    49  45  86 N12       29.79F
OGDEN          CLOUDY    50  45  83 CALM      29.77R
SALT LAKE CITY CLOUDY    53  44  71 W5        29.76S
WENDOVER       MOCLDY    52  32  46 N22G29    29.79R
HEBER CITY     CLOUDY    48  36  61 S23G32    29.81R

$$

UTZ011>015-024>027-230300-

CENTRAL/NORTHEAST UTAH

CITY           SKY/WX    TMP DP  RH WIND       PRES   REMARKS
PROVO AIRPORT  CLOUDY    56  39  53 SE17      29.76F
MOAB/CANYONLAN CLOUDY    66  30  26 SW13      29.76S
DELTA          CLOUDY    57  30  35 S10       29.75F
PRICE          CLOUDY    53  34  48 NW8       29.85R
RICHFIELD      CLOUDY    48  41  76 W3G13     29.87R
ROOSEVELT      CLOUDY    54  39  58 W24       29.86R
VERNAL         CLOUDY    57  36  45 N3        29.80F

$$

UTZ013>016-019>022-027-230300-

SOUTHERN UTAH

CITY           SKY/WX    TMP DP  RH WIND       PRES   REMARKS
BRYCE CANYON   CLOUDY    38  35  89 E6        29.88F WCI  33
CEDAR CITY     MOCLDY    52  31  44 S16       29.79F
MILFORD        MOCLDY    55  29  36 SW17      29.77S
ST GEORGE      CLOUDY    61  41  47 SW14      29.79R
HANKSVILLE     CLOUDY    59  37  44 NW6       29.81S
KANAB          CLOUDY    55  43  62 SE10      29.83S
BLANDING       CLOUDY    59  27  29 CALM      29.93F

$$

REGIONAL REPORTS     COLORADO/ARIZONA

CITY           SKY/WX    TMP DP  RH WIND       PRES   REMARKS
CRAIG, CO      CLOUDY    56  27  32 SW17G30   29.90S
GRAND JUNCTION CLOUDY    62  26  25 SE6       29.79F
RIFLE, CO      CLOUDY    55  36  48 SE15      29.88F
MONTROSE, CO   CLOUDY    57  28  33 E7        29.88F
CORTEZ, CO     CLOUDY    58  23  26 VRB3      29.88F
COLORADO CITY  MOCLDY    55  36  47 W18G26    29.86R
PAGE, AZ       CLOUDY    57  32  38 NE5       29.80F
GRAND CANYON   TSTM      44  41  89 SW23      29.92R FOG
KINGMAN, AZ    LGT RAIN  50  43  77 S12       29.89F
FLAGSTAFF, AZ  CLOUDY    47  38  71 S10       29.94F

$$

REGIONAL REPORTS    NEVADA/IDAHO/WYOMING

CITY           SKY/WX    TMP DP  RH WIND       PRES   REMARKS
LAS VEGAS, NV  CLOUDY    67  13  12 S10       29.75S
ELY, NY        CLOUDY    48   9  20 SW9       29.80F
ELKO, NV       LGT RAIN  37  34  89 E3        29.91S
POCATELLO, ID  CLOUDY    48  41  76 W3        29.85S
BURLEY, ID     CLOUDY    45  36  70 W10       29.83F
FORT BRIDGER,  RAIN      44  39  82 N5        29.91S
EVANSTON, WY   CLOUDY    42  34  73 N6        29.86F
ROCK SPRINGS,  CLOUDY    45  39  79 E5        29.86R
KEMMERER, WY     N/A     37  32  81 N6        29.88F WCI  33

$$




USA.gov is the U.S. government's official web portal to all federal, state and local government web resources and services.